TimeEST,TemperatureF,Dew PointF,Humidity,Sea Level PressureIn,VisibilityMPH,Wind Direction,Wind SpeedMPH,Gust SpeedMPH,PrecipitationIn,Events,Conditions,WindDirDegrees,DateUTC
12:15 AM,68.0,66.2,94,29.88,10.0,WSW,5.8,-,N/A,,Overcast,250,2013-12-15 05:15:00
12:35 AM,68.0,66.2,94,29.87,5.0,WSW,4.6,-,N/A,,Overcast,250,2013-12-15 05:35:00
12:55 AM,68.0,66.2,94,29.88,4.0,West,5.8,-,N/A,,Overcast,260,2013-12-15 05:55:00
1:15 AM,66.2,66.2,100,29.88,5.0,West,4.6,-,N/A,,Overcast,260,2013-12-15 06:15:00
1:35 AM,66.2,64.4,94,29.88,7.0,West,9.2,-,N/A,,Overcast,270,2013-12-15 06:35:00
1:55 AM,66.2,64.4,94,29.88,10.0,West,8.1,-,N/A,,Overcast,280,2013-12-15 06:55:00
2:15 AM,62.6,59.0,88,29.89,7.0,NNW,13.8,25.3,N/A,,Overcast,340,2013-12-15 07:15:00
2:35 AM,62.6,57.2,82,29.88,10.0,NW,4.6,-,N/A,,Overcast,310,2013-12-15 07:35:00
2:55 AM,60.8,59.0,94,29.87,10.0,NW,3.5,-,N/A,,Overcast,320,2013-12-15 07:55:00
3:15 AM,60.8,59.0,94,29.88,10.0,West,3.5,-,N/A,,Overcast,270,2013-12-15 08:15:00
3:35 AM,60.8,59.0,94,29.90,10.0,West,5.8,-,N/A,,Overcast,270,2013-12-15 08:35:00
3:55 AM,62.6,59.0,88,29.90,10.0,WNW,4.6,-,N/A,,Overcast,290,2013-12-15 08:55:00
4:15 AM,62.6,60.8,94,29.88,10.0,Calm,Calm,-,N/A,,Overcast,0,2013-12-15 09:15:00
4:35 AM,60.8,60.8,100,29.89,10.0,Calm,Calm,-,N/A,,Overcast,0,2013-12-15 09:35:00
4:55 AM,60.8,60.8,100,29.88,10.0,Calm,Calm,-,N/A,,Overcast,0,2013-12-15 09:55:00
5:15 AM,60.8,60.8,100,29.88,10.0,Calm,Calm,-,N/A,,Overcast,0,2013-12-15 10:15:00
5:35 AM,60.8,60.8,100,29.90,10.0,Calm,Calm,-,N/A,,Overcast,0,2013-12-15 10:35:00
5:55 AM,60.8,60.8,100,29.91,10.0,Calm,Calm,-,N/A,,Overcast,0,2013-12-15 10:55:00
6:15 AM,60.8,60.8,100,29.91,10.0,Calm,Calm,-,N/A,,Overcast,0,2013-12-15 11:15:00
6:35 AM,60.8,60.8,100,29.94,10.0,West,4.6,-,N/A,,Overcast,260,2013-12-15 11:35:00
6:55 AM,60.8,59.0,94,29.95,10.0,WNW,6.9,-,N/A,,Overcast,290,2013-12-15 11:55:00
7:15 AM,60.8,57.2,88,29.94,10.0,West,9.2,-,N/A,,Overcast,280,2013-12-15 12:15:00
7:35 AM,60.8,57.2,88,29.95,10.0,West,8.1,-,N/A,,Overcast,280,2013-12-15 12:35:00
7:55 AM,60.8,57.2,88,29.96,7.0,WNW,6.9,-,N/A,,Overcast,290,2013-12-15 12:55:00
8:15 AM,60.8,59.0,94,29.95,10.0,WSW,3.5,-,N/A,,Overcast,250,2013-12-15 13:15:00
8:35 AM,60.8,59.0,94,29.96,10.0,West,4.6,-,N/A,,Scattered Clouds,280,2013-12-15 13:35:00
8:55 AM,60.8,59.0,94,29.96,10.0,West,3.5,-,N/A,,Scattered Clouds,280,2013-12-15 13:55:00
9:15 AM,60.8,59.0,94,29.98,10.0,West,8.1,-,N/A,,Scattered Clouds,280,2013-12-15 14:15:00
9:35 AM,60.8,60.8,100,30.00,10.0,West,6.9,-,N/A,,Mostly Cloudy,270,2013-12-15 14:35:00
9:55 AM,60.8,59.0,94,30.00,10.0,West,8.1,-,N/A,,Mostly Cloudy,280,2013-12-15 14:55:00
10:15 AM,62.6,60.8,94,30.00,10.0,NW,5.8,-,N/A,,Mostly Cloudy,310,2013-12-15 15:15:00
10:35 AM,60.8,59.0,94,30.01,10.0,NW,10.4,17.3,N/A,,Overcast,310,2013-12-15 15:35:00
10:55 AM,59.0,57.2,94,30.02,10.0,NW,11.5,-,N/A,,Overcast,320,2013-12-15 15:55:00
11:15 AM,59.0,55.4,88,30.02,10.0,NW,9.2,-,N/A,,Overcast,320,2013-12-15 16:15:00
11:35 AM,57.2,55.4,94,30.02,10.0,NW,10.4,-,N/A,,Overcast,310,2013-12-15 16:35:00
11:55 AM,57.2,53.6,88,30.02,10.0,WNW,10.4,18.4,N/A,,Overcast,300,2013-12-15 16:55:00
12:15 PM,57.2,53.6,88,30.01,10.0,WNW,13.8,-,N/A,,Overcast,300,2013-12-15 17:15:00
12:35 PM,57.2,53.6,88,30.00,10.0,NW,15.0,-,N/A,,Overcast,310,2013-12-15 17:35:00
12:55 PM,57.2,53.6,88,30.01,10.0,NW,17.3,21.9,N/A,,Overcast,320,2013-12-15 17:55:00
1:15 PM,55.4,51.8,88,30.01,10.0,NW,15.0,19.6,N/A,,Overcast,320,2013-12-15 18:15:00
1:35 PM,55.4,51.8,88,30.01,10.0,NW,12.7,-,N/A,,Overcast,320,2013-12-15 18:35:00
1:55 PM,53.6,50.0,88,30.01,10.0,WNW,12.7,17.3,N/A,,Overcast,300,2013-12-15 18:55:00
2:15 PM,53.6,48.2,82,30.01,10.0,NW,10.4,-,N/A,,Overcast,320,2013-12-15 19:15:00
2:35 PM,53.6,48.2,82,30.02,10.0,WNW,9.2,-,N/A,,Overcast,300,2013-12-15 19:35:00
2:55 PM,53.6,48.2,82,30.02,10.0,WNW,12.7,-,N/A,,Overcast,300,2013-12-15 19:55:00
3:15 PM,53.6,46.4,77,30.02,10.0,WNW,9.2,-,N/A,,Scattered Clouds,290,2013-12-15 20:15:00
3:35 PM,53.6,46.4,77,30.02,10.0,West,10.4,-,N/A,,Unknown,280,2013-12-15 20:35:00
3:55 PM,53.6,46.4,77,30.03,10.0,West,10.4,-,N/A,,Unknown,280,2013-12-15 20:55:00
4:15 PM,53.6,46.4,77,30.04,10.0,West,6.9,-,N/A,,Unknown,280,2013-12-15 21:15:00
4:35 PM,53.6,46.4,77,30.05,10.0,West,6.9,-,N/A,,Unknown,280,2013-12-15 21:35:00
4:55 PM,51.8,46.4,82,30.05,10.0,WNW,6.9,-,N/A,,Unknown,290,2013-12-15 21:55:00
5:15 PM,51.8,46.4,82,30.05,10.0,WNW,5.8,-,N/A,,Unknown,290,2013-12-15 22:15:00
5:35 PM,51.8,46.4,82,30.07,10.0,West,5.8,-,N/A,,Unknown,280,2013-12-15 22:35:00
5:55 PM,51.8,46.4,82,30.07,10.0,West,4.6,-,N/A,,Unknown,280,2013-12-15 22:55:00
6:15 PM,51.8,44.6,76,30.07,10.0,WNW,6.9,-,N/A,,Unknown,290,2013-12-15 23:15:00
6:35 PM,51.8,44.6,76,30.08,10.0,WNW,8.1,-,N/A,,Unknown,300,2013-12-15 23:35:00
6:55 PM,50.0,44.6,82,30.08,10.0,West,4.6,-,N/A,,Unknown,280,2013-12-15 23:55:00
7:15 PM,50.0,44.6,82,30.09,10.0,West,4.6,-,N/A,,Unknown,270,2013-12-16 00:15:00
7:35 PM,48.2,44.6,87,30.10,10.0,West,4.6,-,N/A,,Unknown,280,2013-12-16 00:35:00
7:55 PM,48.2,44.6,87,30.11,10.0,West,5.8,-,N/A,,Unknown,280,2013-12-16 00:55:00
8:15 PM,48.2,44.6,87,30.11,10.0,WNW,5.8,-,N/A,,Unknown,300,2013-12-16 01:15:00
8:35 PM,48.2,44.6,87,30.12,10.0,NW,8.1,-,N/A,,Unknown,320,2013-12-16 01:35:00
8:55 PM,48.2,44.6,87,30.12,10.0,NW,8.1,-,N/A,,Unknown,320,2013-12-16 01:55:00
9:15 PM,48.2,42.8,82,30.13,10.0,NNW,10.4,-,N/A,,Unknown,340,2013-12-16 02:15:00
9:35 PM,48.2,41.0,76,30.14,10.0,NNW,8.1,-,N/A,,Unknown,340,2013-12-16 02:35:00
9:55 PM,46.4,41.0,81,30.15,10.0,NNW,5.8,-,N/A,,Unknown,330,2013-12-16 02:55:00
10:15 PM,46.4,41.0,81,30.16,10.0,NNW,3.5,-,N/A,,Unknown,330,2013-12-16 03:15:00
10:35 PM,46.4,41.0,81,30.17,10.0,NW,8.1,-,N/A,,Unknown,320,2013-12-16 03:35:00
10:55 PM,46.4,41.0,81,30.18,10.0,NNW,6.9,-,N/A,,Unknown,330,2013-12-16 03:55:00
11:15 PM,44.6,39.2,81,30.19,10.0,NNW,3.5,-,N/A,,Unknown,340,2013-12-16 04:15:00
11:35 PM,44.6,39.2,81,30.19,10.0,NNW,4.6,-,N/A,,Unknown,340,2013-12-16 04:35:00
11:55 PM,42.8,39.2,87,30.20,10.0,NNW,4.6,-,N/A,,Unknown,330,2013-12-16 04:55:00